contact:dominique.lefevre@mio.osupytheas.fr, maurice.libes@osupytheas.fr
Project:EMSO Ligure-ouest http://www.emso-fr.org/EMSO-France
Sensor Aquadopp, line 04 Serial AQD8517 
DOI : "https://doi.org/10.17882/74513; https://doi.org/10.17882/83244" 
Title:EMSO Ligure Ouest : Data ligne ALBATROSS capteur AQUADOPP - deploiement 2021
Id,Date,Profondeur,Latitude,Longitude,X_East,Y_North,Z_Up,Amplitude_X,Amplitude_Y,Amplitude_Z,Batterie,SoundSpeed,Heading,Pitch,Roll,Pressure,Temperature,Speed,Direction
, , m, degrees North, degrees East, m.s-1, m.s-1,m.s-1, 1, 1, 1, Volt, m.s-1, degree, degree, degree, dbar, degree_C, m.s-1, degree
01,2022-03-10T21:30:00,500.0,42.79,6.0312,0.009,-0.027,0.011,67.0,60.0,60.0,12.2,1505.7,4.2,-0.1,0.6,451.956,13.59,0.028,161.6
01,2022-03-10T22:00:00,500.0,42.79,6.0312,0.007,-0.034,0.002,65.0,59.0,60.0,12.1,1505.6,8.2,-0.1,0.6,452.004,13.58,0.034,168.4
01,2022-03-10T22:30:00,500.0,42.79,6.0312,0.011,-0.029,0.023,64.0,59.0,61.0,12.2,1505.6,14.2,-0.1,0.7,451.995,13.58,0.031,159.2
01,2022-03-10T23:00:00,500.0,42.79,6.0312,0.008,-0.033,-0.002,63.0,61.0,60.0,12.1,1505.6,11.7,-0.1,0.7,452.002,13.58,0.033,166.4
01,2022-03-10T23:30:00,500.0,42.79,6.0312,0.011,-0.047,0.014,66.0,63.0,60.0,12.2,1505.7,8.1,0.0,0.7,451.997,13.59,0.048,166.8
01,2022-03-11T00:00:00,500.0,42.79,6.0312,0.001,-0.04,0.016,64.0,60.0,60.0,12.1,1505.7,354.9,-0.1,0.5,452.037,13.59,0.04,178.6
01,2022-03-11T00:30:00,500.0,42.79,6.0312,0.005,-0.032,0.002,64.0,61.0,59.0,12.2,1505.7,346.5,-0.1,0.6,451.985,13.59,0.032,171.1
01,2022-03-11T01:00:00,500.0,42.79,6.0312,0.014,-0.036,0.007,67.0,60.0,61.0,12.1,1505.6,344.8,-0.1,0.7,451.994,13.58,0.038,158.8
01,2022-03-11T01:30:00,500.0,42.79,6.0312,0.017,-0.049,-0.002,64.0,61.0,59.0,12.2,1505.6,347.9,-0.2,0.7,451.994,13.58,0.051,160.9
01,2022-03-11T02:00:00,500.0,42.79,6.0312,0.015,-0.047,0.004,67.0,59.0,60.0,12.2,1505.6,351.6,-0.1,0.7,452.0,13.58,0.049,162.3
01,2022-03-11T02:30:00,500.0,42.79,6.0312,0.008,-0.06,0.007,65.0,59.0,61.0,12.2,1505.7,357.4,-0.1,0.7,452.007,13.59,0.06,172.4
01,2022-03-11T03:00:00,500.0,42.79,6.0312,0.006,-0.056,0.01,67.0,60.0,60.0,12.1,1505.7,358.0,-0.1,0.5,452.047,13.59,0.056,173.9
01,2022-03-11T03:30:00,500.0,42.79,6.0312,0.0,-0.068,0.021,65.0,59.0,59.0,12.2,1505.7,4.8,-0.2,0.6,452.029,13.59,0.067,180.0
01,2022-03-11T04:00:00,500.0,42.79,6.0312,0.013,-0.058,0.011,64.0,60.0,59.0,12.1,1505.7,356.6,-0.1,0.7,452.006,13.59,0.059,167.4
01,2022-03-11T04:30:00,500.0,42.79,6.0312,0.014,-0.056,0.009,65.0,59.0,61.0,12.1,1505.7,349.3,-0.1,0.7,452.071,13.59,0.057,166.0
01,2022-03-11T05:00:00,500.0,42.79,6.0312,0.022,-0.054,0.001,65.0,60.0,60.0,12.1,1505.6,336.3,-0.1,0.6,452.001,13.58,0.058,157.8
01,2022-03-11T05:30:00,500.0,42.79,6.0312,0.022,-0.051,0.004,66.0,60.0,61.0,12.2,1505.6,336.1,-0.1,0.6,451.999,13.58,0.055,156.7
01,2022-03-11T06:00:00,500.0,42.79,6.0312,0.03,-0.051,0.01,65.0,61.0,60.0,12.1,1505.7,339.2,-0.1,0.6,452.054,13.59,0.059,149.5
01,2022-03-11T06:30:00,500.0,42.79,6.0312,0.023,-0.05,0.003,65.0,61.0,60.0,12.1,1505.6,350.6,-0.2,0.7,451.988,13.58,0.055,155.3
01,2022-03-11T07:00:00,500.0,42.79,6.0312,0.014,-0.054,0.01,64.0,60.0,61.0,12.1,1505.6,354.7,-0.1,0.7,452.014,13.58,0.055,165.5
01,2022-03-11T07:30:00,500.0,42.79,6.0312,0.01,-0.057,-0.013,65.0,60.0,60.0,12.1,1505.7,356.9,-0.1,0.6,452.022,13.59,0.057,170.1
01,2022-03-11T08:00:00,500.0,42.79,6.0312,-0.001,-0.06,0.001,63.0,59.0,59.0,12.1,1505.7,11.2,0.0,0.7,452.035,13.59,0.06,181.0
01,2022-03-11T08:30:00,500.0,42.79,6.0312,-0.012,-0.058,0.0,67.0,59.0,60.0,12.1,1505.7,8.0,0.0,0.6,452.056,13.6,0.059,191.7
01,2022-03-11T09:00:00,500.0,42.79,6.0312,-0.006,-0.066,0.019,65.0,59.0,59.0,12.1,1505.7,15.3,-0.1,0.7,451.995,13.6,0.066,185.2
01,2022-03-11T09:30:00,500.0,42.79,6.0312,-0.009,-0.055,-0.006,63.0,60.0,61.0,12.1,1505.7,12.7,-0.1,0.6,452.034,13.6,0.055,189.3
01,2022-03-11T10:00:00,500.0,42.79,6.0312,-0.014,-0.042,-0.006,65.0,59.0,60.0,12.2,1505.7,11.6,-0.1,0.7,452.018,13.6,0.044,198.4
01,2022-03-11T10:30:00,500.0,42.79,6.0312,-0.013,-0.03,0.008,65.0,58.0,59.0,12.1,1505.7,19.1,-0.1,0.7,452.015,13.59,0.032,203.4
01,2022-03-11T11:00:00,500.0,42.79,6.0312,-0.022,-0.027,0.0,63.0,58.0,59.0,12.1,1505.7,24.1,-0.1,0.6,452.017,13.59,0.034,219.2
01,2022-03-11T11:30:00,500.0,42.79,6.0312,-0.011,-0.012,0.018,62.0,56.0,58.0,12.2,1505.7,23.1,-0.2,0.7,452.013,13.6,0.016,222.5
01,2022-03-11T12:00:00,500.0,42.79,6.0312,-0.007,-0.016,0.008,62.0,59.0,60.0,12.1,1505.7,23.1,-0.1,0.6,452.006,13.59,0.017,203.6
01,2022-03-11T12:30:00,500.0,42.79,6.0312,-0.014,-0.022,0.004,61.0,59.0,58.0,12.1,1505.7,31.8,-0.2,0.7,452.008,13.59,0.026,212.5
01,2022-03-11T13:00:00,500.0,42.79,6.0312,0.002,-0.007,0.003,62.0,61.0,59.0,12.2,1505.7,21.9,-0.1,0.6,451.915,13.59,0.007,164.1
01,2022-03-11T13:30:00,500.0,42.79,6.0312,-0.004,-0.009,0.016,64.0,56.0,60.0,12.2,1505.7,31.2,-0.2,0.8,451.989,13.59,0.009,204.0
01,2022-03-11T14:00:00,500.0,42.79,6.0312,-0.013,-0.007,0.015,67.0,56.0,58.0,12.1,1505.6,20.4,-0.2,0.7,451.995,13.58,0.014,241.7
01,2022-03-11T14:30:00,500.0,42.79,6.0312,-0.009,-0.003,0.0,65.0,58.0,58.0,12.2,1505.6,20.7,-0.2,0.7,451.911,13.58,0.009,251.6
01,2022-03-11T15:00:00,500.0,42.79,6.0312,-0.005,-0.012,0.004,66.0,60.0,57.0,12.2,1505.6,24.6,-0.1,0.6,451.951,13.58,0.013,202.6
01,2022-03-11T15:30:00,500.0,42.79,6.0312,-0.007,-0.025,-0.004,63.0,58.0,60.0,12.1,1505.6,7.0,-0.1,0.8,451.958,13.57,0.025,195.6
01,2022-03-11T16:00:00,500.0,42.79,6.0312,-0.003,-0.018,0.009,61.0,56.0,58.0,12.1,1505.6,0.7,-0.2,0.7,451.977,13.57,0.018,189.5
01,2022-03-11T16:30:00,500.0,42.79,6.0312,-0.017,-0.011,-0.017,63.0,59.0,59.0,12.1,1505.6,2.9,-0.1,0.6,451.963,13.58,0.02,237.1
01,2022-03-11T17:00:00,500.0,42.79,6.0312,-0.019,-0.014,0.003,66.0,60.0,59.0,12.1,1505.7,3.7,-0.2,0.6,451.956,13.59,0.023,233.6
01,2022-03-11T17:30:00,500.0,42.79,6.0312,-0.017,-0.016,0.004,62.0,62.0,61.0,12.2,1505.7,359.2,-0.1,0.6,451.972,13.59,0.023,226.7
01,2022-03-11T18:00:00,500.0,42.79,6.0312,-0.007,-0.022,0.015,63.0,59.0,63.0,12.1,1505.7,348.8,-0.2,0.7,451.944,13.59,0.023,197.6
01,2022-03-11T18:30:00,500.0,42.79,6.0312,-0.006,-0.011,0.011,68.0,60.0,63.0,12.1,1505.6,345.5,-0.1,0.7,451.894,13.58,0.012,208.6
01,2022-03-11T19:00:00,500.0,42.79,6.0312,-0.001,-0.003,0.01,65.0,60.0,59.0,12.1,1505.7,344.5,-0.1,0.7,451.945,13.59,0.003,198.4
01,2022-03-11T19:30:00,500.0,42.79,6.0312,0.003,-0.019,0.018,67.0,60.0,62.0,12.1,1505.7,345.1,-0.1,0.7,451.944,13.59,0.019,171.0
01,2022-03-11T20:00:00,500.0,42.79,6.0312,-0.001,-0.031,0.015,66.0,60.0,62.0,12.1,1505.7,346.5,-0.1,0.6,451.953,13.59,0.031,181.8
01,2022-03-11T20:30:00,500.0,42.79,6.0312,0.0,-0.032,0.018,64.0,60.0,62.0,12.1,1505.6,352.5,-0.2,0.7,451.911,13.58,0.032,180.0
01,2022-03-11T21:00:00,500.0,42.79,6.0312,-0.007,-0.042,0.006,66.0,61.0,61.0,12.1,1505.7,355.9,-0.3,0.7,451.951,13.59,0.042,189.5
